This demonstration page uses our WeatherBlox Daily Observations layout. Learn more.

Left ArrowRight Arrow

Hourly Observations for March 8, 2018

Temp ( °F °C ) Dew Point ( °F °C ) Humidity (%) Winds ( mph kmh ) Pressure ( in mb ) Visibility ( mi km ) Precip ( " mm )
12:38 am 00:38 Cloudy 54 12.2 48 8.9 80 80 SSW 9 15 30.00 1016 10 16 0.00 0.00
12:53 am 00:53 Cloudy 54 12.2 48 8.9 80 80 S 9 15 29.98 1015 10 16 0.00 0.00
1:10 am 01:10 Cloudy 54 12.2 48 8.9 80 80 SSW 8 13 30.00 1016 10 16 0.00 0.00
1:48 am 01:48 Cloudy 54 12 48 9 82 82 SW 3 6 30.00 1016 10 16 0.00 0.00
1:53 am 01:53 Cloudy 54 12.2 48 8.9 80 80 SW 3 6 29.99 1016 10 16 0.00 0.00
2:53 am 02:53 Cloudy 53 11.7 48 8.9 83 83 SSW 12 19 29.98 1015 10 16 0.00 0.00
3:37 am 03:37 Cloudy 53 11.7 48 8.9 83 83 SSW 13 20 30.00 1016 10 16 0.00 0.00
3:48 am 03:48 Cloudy 54 12 48 9 82 82 SSW 12 19 30.00 1016 10 16 0.00 0.00
3:53 am 03:53 Cloudy 53 11.7 48 8.9 83 83 SSW 12 19 30.01 1016 10 16 0.00 0.00
4:53 am 04:53 Mostly Clear 51 10.6 48 8.9 89 89 SSW 10 17 30.02 1017 10 16 0.00 0.00
5:15 am 05:15 Mostly Cloudy 51 10.6 48 8.9 89 89 S 14 22 30.03 1017 10 16 0.00 0.00
5:53 am 05:53 Cloudy 51 10.6 48 8.9 89 89 SW 9 15 30.04 1017 10 16 0.00 0.00
6:10 am 06:10 Mostly Cloudy 51 10.6 48 8.9 89 89 SW 8 13 30.06 1018 10 16 0.00 0.00
6:30 am 06:30 Cloudy 51 10.6 48 8.9 89 89 SW 3 6 30.06 1018 10 16 0.00 0.00
6:46 am 06:46 Cloudy 51 10.6 47 8.3 86 86 SW 3 6 30.06 1018 10 16 0.00 0.00
6:53 am 06:53 Cloudy 51 10.6 47 8.3 86 86 SSW 8 13 30.06 1018 10 16 0.00 0.00
7:32 am 07:32 Cloudy 51 10.6 47 8.3 86 86 SSW 12 19 30.09 1019 10 16 0.00 0.00
7:53 am 07:53 Cloudy 52 11.1 47 8.3 83 83 SW 10 17 30.09 1019 10 16 0.00 0.00
8:53 am 08:53 Cloudy 52 11.1 47 8.3 83 83 SSW 9 15 30.10 1019 10 16 0.00 0.00
9:13 am 09:13 Partly Cloudy 53 11.7 48 8.9 83 83 S 8 13 30.12 1020 10 16 0.00 0.00
9:53 am 09:53 Mostly Sunny 54 12.2 48 8.9 80 80 S 10 17 30.11 1020 10 16 0.00 0.00
10:37 am 10:37 Cloudy 56 13.3 48 8.9 75 75 SSW 9 15 30.12 1020 10 16 0.00 0.00
10:53 am 10:53 Cloudy 56 13.3 48 8.9 75 75 SSW 9 15 30.12 1020 10 16 0.00 0.00
11:53 am 11:53 Mostly Cloudy 57 13.9 48 8.9 72 72 SSW 7 11 30.11 1020 10 16 0.00 0.00
12:00 pm 12:00 Mostly Cloudy 57 13.9 48 8.9 72 72 SW 7 11 30.12 1020 10 16 0.00 0.00
12:29 pm 12:29 Mostly Cloudy 58 14.4 48 8.9 70 70 SSW 6 9 30.12 1020 10 16 0.00 0.00
12:44 pm 12:44 Mostly Cloudy 59 15 47 8.3 64 64 SSW 9 15 30.12 1020 10 16 0.00 0.00
12:53 pm 12:53 Mostly Cloudy 59 15 47 8.3 64 64 S 8 13 30.10 1019 10 16 0.00 0.00
1:53 pm 13:53 Mostly Cloudy 61 16.1 45 7.2 56 56 SSW 10 17 30.07 1018 10 16 0.00 0.00
2:53 pm 14:53 Mostly Cloudy 61 16.1 47 8.3 60 60 WSW 7 11 30.06 1018 10 16 0.00 0.00
3:53 pm 15:53 Cloudy 62 16.7 45 7.2 54 54 WSW 7 11 30.04 1017 10 16 0.00 0.00
4:53 pm 16:53 Partly Cloudy 61 16.1 46 7.8 58 58 WNW 5 7 30.04 1017 10 16 0.00 0.00
5:53 pm 17:53 Mostly Cloudy 59 15 46 7.8 62 62 Calm 30.03 1017 10 16 0.00 0.00
6:53 pm 18:53 Mostly Cloudy 56 13.3 46 7.8 70 70 N 3 6 30.03 1017 10 16 0.00 0.00
7:53 pm 19:53 Mostly Cloudy 53 11.7 47 8.3 80 80 Calm 30.03 1017 10 16 0.00 0.00
8:53 pm 20:53 Clear 53 11.7 46 7.8 77 77 Calm 30.03 1017 10 16 0.00 0.00
9:53 pm 21:53 Clear 50 10 46 7.8 86 86 Calm 30.04 1017 10 16 0.00 0.00
10:53 pm 22:53 Clear 52 11.1 46 7.8 80 80 NW 3 6 30.02 1017 10 16 0.00 0.00
11:53 pm 23:53 Clear 50 10 46 7.8 86 86 NW 3 6 30.02 1017 10 16 0.00 0.00

Powered by AerisWeather